Regional Weather Roundup
Issued by NWS

Home | Current Version | Previous Version | Graphics & Text | Print | Product List | Glossary On
Versions: 1 2 3 4 5 6 7 8 9 10 11 12 13 14 15 16 17 18 19 20 21 22 23 24 25 26 27 28 29 30 31 32 33 34 35 36 37 38 39 40 41 42 43 44 45 46 47 48
000
ASUS45 KBOI 040010
RWRID
WEATHER ROUNDUP FOR IDAHO
NATIONAL WEATHER SERVICE BOISE ID
600 PM MDT SUN MAY 03 2015

NOTE: "FAIR" INDICATES FEW OR NO CLOUDS BELOW 12000 FEET
WITH NO SIGNIFICANT WEATHER AND/OR OBSTRUCTIONS TO VISIBILITY

IDZ012-014-040100-
SOUTHWEST IDAHO


CITY           SKY/WX    TMP DP  RH WIND       PRES   REMARKS
BOISE          SUNNY     78  29  16 NW15      29.79F
CALDWELL       SUNNY     77  34  20 N8        29.80F
MOUNTAIN HOME  MOSUNNY   79  28  15 NW14      29.78F
$$

IDZ016-017-040100-
SOUTHCENTRAL IDAHO


CITY           SKY/WX    TMP DP  RH WIND       PRES   REMARKS
BURLEY         PTSUNNY   71  40  32 S12       29.83F
JEROME         SUNNY     75  30  19 VRB7      29.83F
TWIN FALLS     MOSUNNY   77  31  18 NW9       29.83F
$$

IDZ019>023-040100-
SOUTHEAST IDAHO


CITY           SKY/WX    TMP DP  RH WIND       PRES   REMARKS
IDAHO FALLS    PTSUNNY   65  38  36 N14       29.89S
POCATELLO      PTSUNNY   66  42  41 SE8       29.88S
REXBURG        PTSUNNY   65  35  33 VRB3      29.91F
$$

IDZ006-010-011-018-031-032-040100-
CENTRAL IDAHO MOUNTAINS


CITY           SKY/WX    TMP DP  RH WIND       PRES   REMARKS
MCCALL         MOSUNNY   66  20  17 W8        29.88F
HAILEY         PTSUNNY   70  34  26 N10       29.89S
STANLEY          N/A     61  23  23 W3G23     29.96S
SALMON         PTSUNNY   70  28  21 N6        29.83F
CHALLIS        CLOUDY    66  33  29 E15       29.87S
$$

IDZ002-004-006-007-026-040100-
NORTHERN IDAHO


CITY           SKY/WX    TMP DP  RH WIND       PRES   REMARKS
LEWISTON       SUNNY     76  23  14 CALM      29.85F
LOWELL           N/A     74  33  22 VRB3      29.81F
COEUR D`ALENE  SUNNY     70  25  18 N8        29.91F
MULLAN PASS    SUNNY     56  18  22 VRB3      29.98S
$$


USA.gov is the U.S. government's official web portal to all federal, state and local government web resources and services.